SCP
0 0 0 0 0 0 0 0 0 0 0 0 0 0 0 0 0 0 0 0 0 0 0 0 0 0 0 0 0 0 0 0 0 0 0 0 0 0 0 0 0 0 0 0
0 0 0 0 0 0 0 0 0 0 0 0 0 0 0 0 0 0 0 0 0 0 0 0 0 0 0 0 0 0 0 0 0 0 0 0 0 0 0 0 0 0 0 0
0 0 0 0 0 0 0 0 0 0 0 0 0 0 0 0 0 0 0 0 0 0 0 0 0 0 0 0 0 0 0 0 0 0 0 0 0 0 0 0 0 0 0 0
0 0 0 0 0 0 0 0 0 0 0 0 0 0 0 0 0 0 0 0 0 0 0 0 0 0 0 0 0 0 0 0 0 0 0 0 0 0 0 0 0 0 0 0
0 0 0 0 0 0 0 0 0 0 0 0 0 0 0 0 0 0 0 0 0 0 0 0 0 0 0 0 0 0 0 0 0 0 0 0 0 0 0 0 0 0 0 0
0 0 0 0 0 0 0 0 0 0 0 0 0 0 0 0 0 0 0 0 0 0 0 0 0 0 0 0 0 0 0 0 0 0 0 0 0 0 0 0 0 0 0 0
0 0 0 0 0 0 0 0 0 0 0 0 0 0 0 0 0 0 0 0 0 0 0 0 0 0 0 0 0 0 0 0 0 0 0 0 0 0 0 0 0 0 0 0
0 0 0 0 0 0 0 0 0 0 0 0 0 0 0 0 0 0 0 0 0 0 0 0 0 0 0 0 0 0 0 1 0 0 0 0 0 0 0 0 0 0 0 0
0 0 0 0 0 0 0 0 0 0 0 0 0 0 0 0 0 0 0 0 0 0 0 0 0 0 0 0 0 0 1 1 1 0 0 0 0 0 0 0 0 0 0 0
0 0 0 0 0 0 0 0 0 0 0 0 0 0 0 0 0 0 0 0 0 0 0 0 0 0 0 0 0 1 1 1 1 1 0 0 0 0 0 0 0 0 0 0
0 0 0 0 0 0 0 0 0 0 0 0 0 0 0 0 0 0 0 0 0 0 0 1 1 1 0 0 0 1 1 1 1 1 1 0 0 0 0 0 0 0 0 0
0 0 0 0 0 0 0 0 0 0 0 0 0 0 0 0 0 0 0 0 0 0 1 1 1 1 1 1 1 1 1 1 1 1 1 1 1 1 1 1 1 1 0 0
0 0 0 0 0 0 0 0 0 0 0 0 0 0 0 0 0 0 0 0 0 1 1 1 1 1 1 1 1 1 1 1 1 1 1 1 1 1 1 1 1 1 0 0
0 0 0 0 0 0 0 0 0 0 0 0 0 0 0 0 0 0 0 0 1 1 1 1 1 1 1 1 1 1 1 1 1 1 1 1 1 1 1 1 1 1 0 0
0 0 0 0 0 0 0 0 0 0 0 0 0 0 0 0 0 0 0 1 1 1 1 1 1 1 1 1 1 1 1 1 1 1 1 1 1 1 1 1 1 1 0 0
0 0 0 0 0 0 0 0 0 0 0 0 0 0 0 0 0 1 1 1 1 1 1 1 1 1 1 1 1 1 1 1 1 1 1 1 1 1 1 1 1 1 1 1
0 0 0 0 0 0 0 0 0 0 0 0 0 0 0 0 1 1 1 1 1 1 1 1 2 2 1 1 1 1 1 1 1 1 1 1 1 1 1 1 1 1 1 1
0 0 0 0 0 0 0 0 0 0 0 0 0 0 0 0 1 1 1 1 1 1 1 2 2 2 2 1 1 1 1 1 1 1 1 1 1 1 1 1 1 1 1 1
0 0 0 0 0 0 0 0 0 0 0 0 0 0 0 0 0 1 1 1 1 1 1 2 2 2 2 1 1 1 1 1 1 1 1 1 1 1 1 1 1 1 1 1
0 0 0 0 0 0 0 0 0 0 0 0 1 1 1 1 1 1 1 1 1 1 1 2 2 2 2 2 2 2 2 2 1 1 1 1 1 1 1 1 1 1 1 1
0 0 0 0 0 0 0 0 0 0 1 1 1 1 1 1 1 1 1 1 1 1 1 2 2 2 2 2 2 2 2 2 2 2 2 2 1 1 1 1 1 1 1 1
0 0 0 0 0 0 0 0 0 1 1 1 1 1 1 1 1 1 1 1 1 1 2 2 2 2 2 2 2 2 2 2 2 2 2 1 1 1 1 1 1 1 1 0
0 0 0 0 0 0 0 0 1 1 1 1 1 1 1 1 1 1 1 1 1 1 2 2 2 2 2 2 2 2 2 2 2 2 2 1 1 1 1 1 1 0 0 0
0 0 0 0 0 0 0 0 1 1 1 1 1 1 1 1 1 1 1 1 1 1 2 2 2 2 2 2 2 2 2 2 2 2 2 1 1 1 1 1 0 0 0 0
0 0 0 0 0 0 0 0 0 1 1 1 1 1 1 1 1 1 1 1 1 2 2 2 2 2 2 2 1 2 2 2 2 2 1 1 1 1 1 0 0 0 0 0
0 0 0 0 0 0 0 0 0 1 1 1 1 1 1 1 1 2 2 2 2 2 2 2 2 2 2 1 1 1 2 2 2 2 1 1 1 1 0 0 0 0 0 0
Wind_Speed
7 9 8 6 6 3 2 3 1 4 4 6 6 5 7 10 10 10 9 8 8 7 7 6 6 6 6 5 5 4 3 3 3 2 2 2 2 2 2 1 1 1 1 2
9 10 5 3 4 5 5 4 3 5 4 4 4 5 6 9 11 10 9 9 9 8 8 7 7 7 7 6 6 5 5 4 4 2 1 1 1 1 1 0 1 1 1 2
13 6 5 6 7 7 6 4 2 3 5 6 5 6 7 8 9 9 9 9 9 9 9 9 9 8 8 7 7 5 5 4 4 3 3 2 2 2 2 2 1 1 1 1
10 6 7 9 8 7 6 2 2 5 6 3 4 2 6 8 9 11 11 10 10 10 9 9 9 9 8 8 7 6 6 5 5 4 3 3 2 1 1 1 1 1 1 1
9 8 10 10 7 6 1 3 4 5 5 4 4 5 4 6 8 9 10 10 10 10 10 10 10 9 8 8 7 7 6 6 5 4 4 3 2 1 1 1 1 1 1 1
6 6 7 6 4 5 7 7 5 6 7 5 1 5 0 4 4 6 9 10 10 10 10 10 9 9 8 8 8 7 7 6 5 5 4 3 2 1 1 1 1 1 1 1
10 10 7 6 8 9 9 8 7 7 7 3 2 5 1 3 2 4 7 10 11 11 11 11 10 10 10 9 9 8 8 7 6 6 5 4 3 2 2 2 1 1 1 0
14 14 12 10 10 9 11 11 8 7 5 3 5 4 2 3 2 3 6 9 10 11 11 11 11 11 10 10 10 9 8 7 7 6 5 4 3 3 1 1 2 1 1 1
11 11 9 7 6 8 10 10 9 8 7 7 3 2 2 4 5 6 7 9 11 11 12 12 11 11 11 10 10 10 9 8 7 6 5 5 4 2 1 1 2 1 1 0
7 8 9 8 7 3 7 7 6 9 7 8 6 6 3 4 5 7 8 10 11 11 12 11 11 11 10 10 10 9 9 8 7 7 6 4 4 3 2 2 1 1 1 1
8 9 9 10 11 11 8 9 8 7 8 9 7 2 2 2 4 7 8 9 10 11 11 11 10 10 10 9 9 9 9 8 7 6 5 4 4 4 3 2 2 1 1 1
8 8 9 10 4 4 10 11 11 9 8 8 9 2 3 1 3 4 6 8 9 10 10 10 11 10 10 10 9 9 9 8 8 7 6 5 4 4 3 3 2 2 1 1
6 8 10 11 10 8 9 9 11 12 9 9 10 4 4 3 2 3 4 7 8 10 10 10 10 10 10 10 9 9 9 9 8 7 7 6 5 4 3 3 2 2 2 1
6 9 11 12 9 10 11 11 11 12 10 11 12 6 3 3 3 3 4 6 8 10 10 10 10 9 9 9 10 9 9 8 8 8 7 6 5 4 3 3 2 2 2 2
6 9 10 10 8 8 10 11 12 13 13 12 9 7 5 4 3 2 3 5 7 9 10 10 10 9 10 10 9 9 9 8 8 8 7 6 5 4 4 3 3 3 2 2
2 6 8 10 10 11 12 12 12 12 12 12 10 8 4 3 3 2 3 5 7 7 8 9 10 10 10 10 10 10 9 9 8 8 7 7 6 5 4 4 4 3 3 2
4 5 7 10 9 11 15 12 12 11 10 11 11 8 4 5 4 4 3 4 5 6 7 7 9 9 10 10 10 10 10 9 9 8 7 7 7 6 5 4 4 4 3 3
5 6 6 7 9 15 6 4 7 9 9 9 8 6 5 5 4 3 2 3 4 5 6 7 7 8 9 10 10 10 10 10 9 8 8 7 7 6 6 5 5 4 3 3
6 7 7 8 11 10 6 3 5 8 7 5 5 5 4 4 4 4 2 3 4 4 4 5 6 7 8 9 10 11 10 10 9 9 8 8 7 7 6 5 4 4 3 3
7 8 8 9 11 11 5 2 2 6 8 1 3 3 3 4 6 2 1 2 2 2 2 4 5 6 7 8 10 11 10 10 9 9 8 8 7 7 6 5 5 4 4 4
9 8 11 11 11 6 1 0 4 9 2 2 3 3 3 3 5 4 3 2 2 1 3 4 6 6 7 8 9 10 10 9 8 8 7 7 7 7 6 6 5 5 4 4
7 8 9 10 12 6 4 1 3 4 5 5 4 4 3 4 4 3 2 1 1 2 3 5 5 6 6 8 9 8 8 7 7 8 7 7 7 6 6 6 5 4 4 4
5 4 3 4 3 3 3 3 4 4 5 5 6 6 5 4 3 3 1 0 1 2 3 4 5 6 6 7 8 8 7 7 8 8 7 6 6 5 5 6 6 5 4 3
3 2 4 4 3 1 2 3 4 4 5 6 6 6 6 5 3 2 1 0 1 2 3 4 5 6 5 6 6 7 7 8 8 8 7 6 6 6 5 4 4 4 4 4
3 4 5 5 3 3 2 3 5 6 6 5 5 6 5 4 3 1 0 1 1 2 3 4 4 5 5 5 6 6 7 8 8 8 7 6 6 6 5 4 2 2 2 1
4 5 6 4 2 4 4 6 7 7 6 6 5 4 4 3 2 1 1 1 2 2 3 4 4 4 5 5 5 5 6 7 7 6 6 5 5 5 5 5 4 5 3 4
Wind_Direction
200 215 207 200 231 280 250 237 156 107 142 208 220 213 175 181 198 198 194 192 193 192 180 177 180 187 182 177 181 186 190 177 202 202 211 198 186 190 174 181 167 200 225 217
207 214 205 201 208 225 226 224 159 127 154 223 225 227 196 191 202 206 202 198 198 191 181 177 181 182 184 179 183 184 186 185 198 182 209 225 232 206 186 214 164 228 237 250
224 190 169 196 196 211 218 236 209 147 164 204 236 211 195 190 200 205 211 207 201 196 189 182 185 186 184 182 185 184 183 183 190 192 197 191 189 204 190 188 187 218 244 261
222 179 189 206 204 220 212 228 219 182 212 178 249 273 160 183 194 202 206 205 200 192 189 185 184 186 185 182 179 181 180 181 181 193 206 210 211 212 194 232 132 169 198 277
198 190 203 213 206 221 175 146 190 210 243 249 214 280 122 172 196 195 197 198 193 187 184 184 185 183 184 180 175 174 176 178 179 187 190 210 219 223 199 176 138 226 174 248
200 195 220 213 180 175 146 158 173 219 241 243 263 278 153 141 186 179 178 183 184 180 179 179 178 177 180 178 176 172 171 176 178 184 191 202 208 226 255 254 251 232 197 203
197 197 188 189 172 173 202 211 214 218 222 226 138 263 348 80 126 171 171 174 176 177 176 176 176 177 180 180 178 175 171 175 178 181 188 192 202 205 212 246 239 283 296 269
202 198 191 199 214 200 216 233 246 256 253 207 183 250 81 96 125 161 166 165 170 174 175 175 176 177 180 180 179 179 175 176 178 180 182 188 199 213 202 224 280 282 307 339
213 203 177 198 224 232 210 230 258 259 264 269 229 230 208 167 165 165 164 165 171 174 175 176 175 177 178 180 181 181 177 176 178 180 179 182 189 204 201 204 232 250 270 277
233 213 184 175 186 209 254 227 226 247 252 256 238 234 223 179 180 172 170 171 171 172 175 175 173 177 176 177 178 180 178 176 177 180 186 176 178 183 195 219 228 300 308 310
235 222 191 194 210 200 193 210 227 242 260 265 258 235 68 208 188 182 173 172 172 173 173 170 170 172 171 174 175 176 174 175 176 178 178 178 175 176 184 190 207 209 248 261
223 232 217 206 189 266 230 222 214 227 231 249 271 261 81 172 191 177 171 168 172 173 170 166 165 167 170 172 171 169 171 174 176 173 173 173 172 175 179 173 188 173 185 197
206 226 218 206 196 200 222 225 231 237 236 237 250 231 124 137 168 173 179 170 171 172 170 165 165 168 171 171 169 169 172 171 170 166 168 165 168 168 172 167 172 163 167 168
244 231 236 234 220 202 209 213 226 232 235 236 244 254 223 205 207 194 186 179 175 173 173 172 170 171 170 170 169 169 168 166 165 163 163 161 161 161 160 153 154 161 158 152
243 228 233 249 249 236 227 224 223 235 249 254 248 247 253 254 252 232 204 185 179 174 176 178 177 172 171 169 168 168 166 166 163 162 159 156 153 150 148 147 150 151 147 144
250 240 230 234 234 235 235 231 230 234 244 247 249 251 265 258 253 234 213 193 188 184 182 180 179 175 173 171 169 167 169 166 164 163 157 151 149 147 149 152 152 149 146 144
210 222 230 230 218 232 232 230 230 230 237 246 246 251 246 244 250 251 231 209 202 198 191 186 185 182 177 174 170 169 167 165 163 162 157 154 152 153 156 155 148 146 144 137
227 230 235 234 220 233 227 238 241 237 236 243 254 261 250 254 259 253 227 225 226 217 199 191 187 180 178 173 169 166 162 163 162 161 159 157 156 154 155 152 148 146 141 135
224 227 237 233 230 229 215 215 232 235 237 250 257 261 265 267 241 212 218 255 246 230 207 192 187 181 172 170 166 164 165 166 167 166 164 162 159 154 154 154 152 150 148 144
191 223 237 230 239 233 199 170 264 250 228 252 290 279 279 263 249 233 345 306 279 228 186 181 172 163 163 167 165 167 169 170 174 169 167 163 159 156 156 153 152 152 154 153
191 206 227 233 237 232 64 279 226 234 241 346 302 296 284 288 311 320 309 291 272 204 168 164 162 160 163 165 167 172 173 175 171 166 164 160 158 158 156 152 153 152 152 147
223 215 216 232 238 220 60 246 264 338 347 323 307 295 290 291 308 307 304 276 217 178 161 161 162 157 158 163 169 171 170 161 156 157 159 159 159 161 153 152 151 151 151 153
243 284 267 254 263 20 355 337 341 333 320 319 314 304 289 281 288 304 305 245 170 158 158 162 156 148 150 160 166 162 152 151 153 154 154 154 153 155 154 156 154 157 170 179
195 250 255 247 222 282 325 339 341 333 321 316 310 303 289 278 284 292 295 147 137 135 148 150 150 151 150 152 153 150 151 156 155 153 152 153 155 158 157 160 165 176 182 192
274 242 237 240 251 259 270 331 333 326 320 315 314 308 294 280 278 281 187 119 103 117 133 142 150 153 152 148 146 149 154 157 155 152 154 159 162 159 158 160 151 194 171 212
253 263 261 263 293 291 303 323 322 317 319 317 309 313 311 302 291 289 108 96 108 116 119 132 143 144 142 141 141 146 153 157 156 156 162 170 165 161 171 164 145 62 71 88